Regional Weather Roundup
Issued by NWS

Home | Current Version | Previous Version | Graphics & Text | Print | Product List | Glossary On
Versions: 1 2 3 4 5 6 7 8 9 10 11 12 13 14 15 16 17 18 19 20 21 22 23 24 25 26 27 28 29 30 31 32 33 34 35 36 37 38 39 40 41 42 43 44 45 46 47 48 49 50
000
ASUS44 KMEG 261910
RWRTN
TENNESSEE HOURLY STATE WEATHER ROUNDUP
NATIONAL WEATHER SERVICE MEMPHIS TN
200 PM CDT FRI AUG 26 2016

TNZ002-004-019-021-049-052-054-088>092-262000-
WEST TENNESSEE

CITY           SKY/WX    TMP DP  RH WIND       PRES   REMARKS
MEMPHIS INTL   CLOUDY    83  77  82 S10       30.05S HX  92
NWS MEMPHIS      N/A     85 N/A N/A MISG        N/A
JACKSON        CLOUDY    89  78  70 E5        30.04F HX 103
DYERSBURG      MOSUNNY   93  79  62 MISG      30.03S HX 110
UNION CITY     SUNNY     91  77  62 E6        30.03F HX 105
PARIS          MOSUNNY   90  77  66 NE5       30.07F HX 102
LEXINGTON      PTSUNNY   72  70  94 SW9       30.09R
$$

TNZ008-025-027-028-033-062-065-066-262000-
NORTH MIDDLE TENNESSEE

CITY           SKY/WX    TMP DP  RH WIND       PRES   REMARKS
NASHVILLE      PTSUNNY   93  72  50 E9        30.06F HX 101
CLARKSVILLE    MOSUNNY   90  72  55 E7        30.05F HX  97
SMYRNA         MOSUNNY   91  73  55 MISG      30.07F HX 100
COOKEVILLE     MOSUNNY   93  75  55 NE10      30.09F HX 104
CROSSVILLE     MOSUNNY   88  68  51 E6        30.16F HX  91
$$

TNZ061-075-076-078-094-096-097-262000-
SOUTH MIDDLE TENNESSEE

CITY           SKY/WX    TMP DP  RH WIND       PRES   REMARKS
FAYETTEVILLE   SUNNY     91  73  55 NE9       30.06F HX 100
TULLAHOMA      MOSUNNY   91  70  49 NE8       30.08F HX  97
WINCHESTER     MOSUNNY   93  73  52 E7        30.07F HX 102
MCMINNVILLE    MOSUNNY   91  75  59 NE7       30.09F HX 102
COLUMBIA       MOSUNNY   93  75  55 NE7       30.04F HX 104
SHELBYVILLE    MOSUNNY   93  75  55 E6        30.06F HX 104
$$

TNZ017-018-042-046-047-262000-
NORTHEAST TENNESSEE

CITY           SKY/WX    TMP DP  RH WIND       PRES   REMARKS
TRI CITIES     MOSUNNY   92  66  42 NE3       30.16F HX  94
ELIZABETHTON   SUNNY     90  68  48 W5        30.15F HX  93
$$

TNZ012-013-036-069-073-074-262000-
CENTRAL EAST TENNESSEE

CITY           SKY/WX    TMP DP  RH WIND       PRES   REMARKS
KNOXVILLE      MOSUNNY   94  68  42 E9G17     30.10F HX  98
OAK RIDGE      MOSUNNY   92  71  50 CALM      30.12F HX  98
GATLINBURG       N/A     91  68  46 NE8       30.10F HX  95
MORRISTOWN     MOSUNNY   90  70  51 VRB3      30.13F HX  95
$$

TNZ083-085-099-262000-
SOUTHEAST TENNESSEE

CITY           SKY/WX    TMP DP  RH WIND       PRES   REMARKS
CHATTANOOGA    PTSUNNY   94  70  45 N7        30.06F HX 100
$$

SKY/WX REPORTED AS FAIR MEANS FEW OR NO CLOUDS BELOW
12 THOUSAND FEET.





USA.gov is the U.S. government's official web portal to all federal, state and local government web resources and services.